TimeEDT,TemperatureF,Dew PointF,Humidity,Sea Level PressureIn,VisibilityMPH,Wind Direction,Wind SpeedMPH,Gust SpeedMPH,PrecipitationIn,Events,Conditions,WindDirDegrees,DateUTC
12:53 AM,63.0,61.0,93,30.03,9.0,SSW,15.0,-,N/A,,Clear,200,2012-10-15 04:53:00
1:53 AM,63.0,61.0,93,30.00,9.0,SSW,15.0,-,N/A,,Clear,200,2012-10-15 05:53:00
2:53 AM,63.0,61.0,93,29.98,8.0,SSW,15.0,-,N/A,,Partly Cloudy,200,2012-10-15 06:53:00
3:53 AM,63.0,61.0,93,29.96,8.0,SSW,13.8,-,N/A,,Partly Cloudy,200,2012-10-15 07:53:00
4:53 AM,62.1,61.0,96,29.95,7.0,South,11.5,-,N/A,,Scattered Clouds,190,2012-10-15 08:53:00
5:53 AM,62.1,61.0,96,29.93,8.0,South,11.5,-,N/A,,Mostly Cloudy,190,2012-10-15 09:53:00
6:53 AM,63.0,61.0,93,29.92,7.0,South,12.7,-,N/A,,Partly Cloudy,190,2012-10-15 10:53:00
7:53 AM,64.0,62.1,93,29.92,7.0,South,13.8,-,N/A,,Mostly Cloudy,190,2012-10-15 11:53:00
8:53 AM,64.0,62.1,93,29.91,8.0,South,15.0,-,N/A,,Mostly Cloudy,190,2012-10-15 12:53:00
9:53 AM,64.9,63.0,93,29.90,5.0,South,23.0,29.9,0.00,Rain,Light Rain,190,2012-10-15 13:53:00
10:53 AM,68.0,63.0,84,29.88,9.0,South,17.3,-,0.00,,Clear,190,2012-10-15 14:53:00
11:53 AM,68.0,63.0,84,29.86,9.0,South,13.8,23.0,N/A,,Clear,190,2012-10-15 15:53:00
12:53 PM,69.1,64.0,84,29.83,9.0,South,12.7,-,N/A,,Clear,190,2012-10-15 16:53:00
1:53 PM,68.0,63.0,84,29.81,9.0,South,11.5,-,N/A,,Clear,190,2012-10-15 17:53:00
2:53 PM,66.9,63.0,87,29.80,8.0,South,11.5,-,N/A,,Overcast,190,2012-10-15 18:53:00
3:53 PM,66.0,63.0,90,29.78,8.0,South,12.7,-,N/A,,Mostly Cloudy,180,2012-10-15 19:53:00
4:53 PM,64.9,63.0,93,29.75,7.0,South,13.8,-,N/A,,Mostly Cloudy,180,2012-10-15 20:53:00
5:53 PM,64.0,63.0,96,29.75,7.0,South,13.8,-,0.00,Rain,Light Rain,190,2012-10-15 21:53:00
6:53 PM,64.0,63.0,96,29.74,9.0,South,13.8,-,0.00,,Overcast,190,2012-10-15 22:53:00
7:53 PM,63.0,62.1,97,29.73,8.0,South,10.4,-,0.00,Rain,Light Rain,180,2012-10-15 23:53:00
8:53 PM,63.0,61.0,93,29.71,10.0,SSW,12.7,-,0.02,,Mostly Cloudy,210,2012-10-16 00:53:00
9:53 PM,63.0,62.1,97,29.69,10.0,South,11.5,-,N/A,,Clear,180,2012-10-16 01:53:00
10:53 PM,62.1,62.1,100,29.67,9.0,South,8.1,-,N/A,,Scattered Clouds,190,2012-10-16 02:53:00
11:53 PM,62.1,62.1,100,29.65,9.0,South,8.1,-,N/A,,Partly Cloudy,180,2012-10-16 03:53:00